Change the Weather History Date:

Tuesday, May 21, 2013

  Actual Average Record
Temperature  
Mean Temperature 64 °F 63 °F  
Max Temperature 75 °F 74 °F 92 °F (1934)
Min Temperature 53 °F 52 °F 33 °F (1931)
Degree Days  
Heating Degree Days 1 4  
Month to date heating degree days 150 135  
Since 1 July heating degree days 6210 6265  
Cooling Degree Days 0 2  
Month to date cooling degree days 44 27  
Year to date cooling degree days 56 38  
Growing Degree Days 15 (Base 50)    
Moisture  
Dew Point 55 °F    
Average Humidity 75    
Maximum Humidity 97    
Minimum Humidity 53    
Precipitation  
Precipitation 0.00 in 0.16 in 1.71 in (1949)
Month to date precipitation 3.35 3.13  
Year to date precipitation 17.28 10.95  
Sea Level Pressure  
Sea Level Pressure 29.66 in    
Wind  
Wind Speed 10 mph (SW)    
Max Wind Speed 18 mph    
Max Gust Speed 23 mph    
Visibility 10 miles    
Events      
T = Trace of Precipitation, MM = Missing Value Source: NWS Daily Summary

Daily Weather History Graph

Daily Weather History Graph

Search for Another Location

Airport or City:

Trip Planner

Search our weather history database for the weather conditions in past years. The results will help you decide how hot, cold, wet, or windy it might be!

Date:

Astronomy

May. 21, 2013 Rise Set
Actual Time 5:46 AM CDT 8:27 PM CDT
Civil Twilight 5:14 AM CDT 8:59 PM CDT
Nautical Twilight 4:34 AM CDT 9:39 PM CDT
Astronomical Twilight 3:48 AM CDT 10:25 PM CDT
Moon 4:39 PM CDT (5/21) 3:16 AM CDT (5/21)
Length of Visible Light 15h 44m
Length of Day
14h 40m
Waxing Gibbous, 84% of the Moon is Illuminated
May 21
Waxing Gibbous
May 24
Full
May 31
Last Quarter
Jun 8
New
Jun 16
First Quarter

Hourly Weather History & Observations

Time (CDT) Temp. Dew Point Humidity Pressure Visibility Wind Dir Wind Speed Gust Speed Precip Events Conditions
12:53 AM 61.0 °F 55.9 °F 83% 29.62 in 10.0 mi South 9.2 mph - 0.00 in   Clear
1:53 AM 61.0 °F 57.9 °F 90% 29.62 in 10.0 mi South 11.5 mph - N/A   Clear
2:53 AM 62.1 °F 60.1 °F 93% 29.60 in 9.0 mi South 12.7 mph - N/A   Clear
3:06 AM 62.6 °F 60.8 °F 94% 29.61 in 9.0 mi South 11.5 mph - N/A   Scattered Clouds
3:15 AM 62.6 °F 60.8 °F 94% 29.61 in 8.0 mi South 12.7 mph - N/A   Mostly Cloudy
3:53 AM 63.0 °F 61.0 °F 93% 29.60 in 8.0 mi South 12.7 mph - N/A   Overcast
4:53 AM 62.1 °F 60.1 °F 93% 29.61 in 8.0 mi South 10.4 mph - N/A   Partly Cloudy
5:53 AM 61.0 °F 59.0 °F 93% 29.63 in 8.0 mi SSW 9.2 mph - N/A   Clear
6:53 AM 61.0 °F 55.0 °F 81% 29.64 in 10.0 mi SW 12.7 mph - N/A   Clear
7:53 AM 62.1 °F 55.0 °F 78% 29.65 in 10.0 mi WSW 11.5 mph - N/A   Clear
8:53 AM 64.0 °F 55.9 °F 75% 29.67 in 10.0 mi WSW 11.5 mph - N/A   Scattered Clouds
9:15 AM 64.4 °F 55.4 °F 73% 29.69 in 9.0 mi WSW 16.1 mph 20.7 mph N/A   Mostly Cloudy
9:53 AM 64.9 °F 55.9 °F 73% 29.69 in 10.0 mi WSW 12.7 mph 19.6 mph N/A   Overcast
10:25 AM 64.4 °F 55.4 °F 73% 29.70 in 10.0 mi SW 12.7 mph 21.9 mph N/A   Overcast
10:46 AM 66.2 °F 55.4 °F 68% 29.69 in 10.0 mi SSW 13.8 mph 23.0 mph N/A   Overcast
10:53 AM 64.9 °F 55.0 °F 70% 29.68 in 10.0 mi WSW 16.1 mph - N/A   Overcast
11:18 AM 66.2 °F 55.4 °F 68% 29.69 in 10.0 mi SW 12.7 mph - N/A   Overcast
11:48 AM 66.2 °F 55.4 °F 68% 29.70 in 10.0 mi WSW 17.3 mph 20.7 mph N/A   Mostly Cloudy
11:53 AM 66.9 °F 55.9 °F 68% 29.69 in 10.0 mi WSW 13.8 mph - N/A   Mostly Cloudy
12:53 PM 70.0 °F 55.9 °F 61% 29.69 in 10.0 mi WSW 12.7 mph - N/A   Scattered Clouds
1:53 PM 72.0 °F 55.0 °F 55% 29.67 in 10.0 mi SW 11.5 mph 19.6 mph N/A   Mostly Cloudy
2:53 PM 72.0 °F 55.0 °F 55% 29.67 in 10.0 mi SW 12.7 mph 21.9 mph N/A   Mostly Cloudy
3:53 PM 73.9 °F 55.0 °F 52% 29.66 in 10.0 mi SW 12.7 mph - N/A   Scattered Clouds
4:53 PM 72.0 °F 53.1 °F 51% 29.66 in 10.0 mi SW 13.8 mph - N/A   Mostly Cloudy
5:53 PM 72.0 °F 53.1 °F 51% 29.65 in 10.0 mi WSW 15.0 mph - N/A   Overcast
6:53 PM 70.0 °F 53.1 °F 55% 29.65 in 10.0 mi WSW 11.5 mph - N/A   Mostly Cloudy
7:53 PM 66.9 °F 53.1 °F 61% 29.66 in 10.0 mi WSW 5.8 mph - N/A   Mostly Cloudy
8:53 PM 62.1 °F 52.0 °F 70% 29.67 in 10.0 mi West 5.8 mph - N/A   Clear
9:53 PM 60.1 °F 50.0 °F 69% 29.67 in 10.0 mi West 3.5 mph - N/A   Partly Cloudy
10:53 PM 57.0 °F 48.9 °F 74% 29.68 in 10.0 mi WNW 6.9 mph - N/A   Clear
11:53 PM 54.0 °F 50.0 °F 86% 29.69 in 10.0 mi Calm Calm - N/A   Clear